| time (UTC) | temp C | wind direction | speed KPH | gust KPH | rain 1hr cm | rain 24hr cm | rain mn cm | humidity % | barometer mb |
| 20260902120717 | 10 | 82 | 0.0 | 1.6 | 0.00 | 0.00 | 0.00 | 99 | 1010.0 |
| 20260902120219 | 10 | 81 | 0.0 | 0.0 | 0.00 | 0.00 | 0.00 | 99 | 1010.0 |
| 20260902115717 | 10 | 74 | 0.0 | 0.0 | 0.00 | 0.00 | 0.00 | 99 | 1010.0 |
| 20260902115218 | 10 | 74 | 0.0 | 1.6 | 0.00 | 0.00 | 0.00 | 99 | 1010.0 |
| 20260902114218 | 10 | 106 | 0.0 | 0.0 | 0.00 | 0.00 | 0.00 | 99 | 1010.3 |
| 20260902113716 | 10 | 106 | 0.0 | 0.0 | 0.00 | 0.00 | 0.00 | 99 | 1010.0 |
| 20260902113217 | 10 | 106 | 0.0 | 0.0 | 0.00 | 0.00 | 0.00 | 99 | 1010.3 |
| 20260902112203 | 11 | 106 | 0.0 | 0.0 | 0.00 | 0.00 | 0.00 | 99 | 1010.0 |
| 20260902111701 | 11 | 106 | 0.0 | 0.0 | 0.00 | 0.00 | 0.00 | 99 | 1009.7 |
| 20260902111202 | 11 | 106 | 0.0 | 0.0 | 0.00 | 0.00 | 0.00 | 99 | 1009.7 |
| 20260902110700 | 11 | 106 | 0.0 | 0.0 | 0.00 | 0.00 | 0.00 | 99 | 1009.7 |
| 20260902105700 | 11 | 106 | 0.0 | 0.0 | 0.00 | 0.00 | 0.00 | 99 | 1009.7 |
| 20260902105202 | 11 | 106 | 0.0 | 0.0 | 0.00 | 0.00 | 0.00 | 99 | 1009.7 |
| 20260902104702 | 11 | 106 | 0.0 | 1.6 | 0.00 | 0.00 | 0.00 | 99 | 1009.7 |
| 20260902104203 | 11 | 106 | 0.0 | 1.6 | 0.00 | 0.00 | 0.00 | 99 | 1010.0 |
| 20260902103701 | 11 | 106 | 0.0 | 1.6 | 0.00 | 0.00 | 0.00 | 99 | 1010.0 |
| 20260902103202 | 11 | 74 | 0.0 | 1.6 | 0.00 | 0.00 | 0.00 | 99 | 1010.0 |
| 20260902102701 | 11 | 75 | 0.0 | 1.6 | 0.00 | 0.00 | 0.00 | 99 | 1010.0 |
| 20260902102203 | 11 | 75 | 0.0 | 1.6 | 0.00 | 0.00 | 0.00 | 99 | 1010.0 |
| 20260902101701 | 11 | 180 | 0.0 | 0.0 | 0.00 | 0.00 | 0.00 | 99 | 1009.7 |
| 20260902101202 | 12 | 180 | 0.0 | 0.0 | 0.00 | 0.00 | 0.00 | 99 | 1010.0 |
| 20260902100701 | 12 | 180 | 0.0 | 0.0 | 0.00 | 0.00 | 0.00 | 99 | 1010.0 |
| 20260902095700 | 12 | 180 | 0.0 | 0.0 | 0.00 | 0.00 | 0.00 | 99 | 1010.0 |
| 20260902095203 | 12 | 180 | 0.0 | 0.0 | 0.00 | 0.00 | 0.00 | 99 | 1010.0 |
| 20260902094701 | 12 | 180 | 0.0 | 0.0 | 0.00 | 0.00 | 0.00 | 99 | 1010.0 |
| 20260902094201 | 12 | 180 | 0.0 | 0.0 | 0.00 | 0.00 | 0.00 | 99 | 1010.0 |
| 20260902093700 | 11 | 180 | 0.0 | 0.0 | 0.00 | 0.00 | 0.00 | 99 | 1009.7 |
| 20260902093202 | 11 | 180 | 0.0 | 0.0 | 0.00 | 0.00 | 0.00 | 99 | 1009.7 |
| 20260902092203 | 12 | 157 | 0.0 | 1.6 | 0.00 | 0.00 | 0.00 | 99 | 1009.7 |
| 20260902091701 | 11 | 157 | 0.0 | 1.6 | 0.00 | 0.00 | 0.00 | 99 | 1009.7 |
| 20260902090701 | 11 | 0 | 0.0 | 0.0 | 0.00 | 0.00 | 0.00 | 99 | 1009.3 |
| 20260902090201 | 11 | 0 | 0.0 | 0.0 | 0.00 | 0.00 | 0.00 | 99 | 1009.3 |
| 20260902085701 | 11 | 0 | 0.0 | 0.0 | 0.00 | 0.00 | 0.00 | 99 | 1009.3 |
| 20260902085203 | 11 | 0 | 0.0 | 0.0 | 0.00 | 0.00 | 0.00 | 99 | 1009.3 |
| 20260902084701 | 11 | 0 | 0.0 | 0.0 | 0.00 | 0.00 | 0.00 | 99 | 1009.3 |
| 20260902084201 | 12 | 0 | 0.0 | 1.6 | 0.00 | 0.00 | 0.00 | 99 | 1009.3 |
| 20260902083700 | 12 | 0 | 0.0 | 1.6 | 0.00 | 0.00 | 0.00 | 99 | 1009.3 |
| 20260902083201 | 12 | 90 | 0.0 | 1.6 | 0.00 | 0.00 | 0.00 | 99 | 1009.0 |
| 20260902082701 | 12 | 81 | 0.0 | 1.6 | 0.00 | 0.00 | 0.00 | 99 | 1009.3 |
| 20260902082201 | 12 | 81 | 0.0 | 0.0 | 0.00 | 0.00 | 0.00 | 99 | 1009.0 |
| 20260902081701 | 12 | 81 | 0.0 | 0.0 | 0.00 | 0.00 | 0.00 | 99 | 1009.0 |
| 20260902081202 | 12 | 81 | 0.0 | 0.0 | 0.00 | 0.00 | 0.00 | 99 | 1009.0 |
| 20260902080702 | 12 | 81 | 0.0 | 0.0 | 0.00 | 0.00 | 0.00 | 99 | 1009.0 |
| 20260902080201 | 12 | 90 | 0.0 | 0.0 | 0.00 | 0.00 | 0.00 | 98 | 1008.5 |
| 20260902075702 | 12 | 105 | 0.0 | 0.0 | 0.00 | 0.00 | 0.00 | 98 | 1009.3 |
| 20260902074200 | 13 | 105 | 0.0 | 0.0 | 0.00 | 0.00 | 0.00 | 98 | 1009.3 |
| 20260902073700 | 13 | 105 | 0.0 | 0.0 | 0.00 | 0.00 | 0.00 | 98 | 1009.3 |
| 20260902073201 | 13 | 105 | 0.0 | 0.0 | 0.00 | 0.00 | 0.00 | 98 | 1009.3 |
| 20260902072700 | 13 | 105 | 0.0 | 0.0 | 0.00 | 0.00 | 0.00 | 98 | 1009.3 |
| 20260902072202 | 13 | 105 | 0.0 | 0.0 | 0.00 | 0.00 | 0.00 | 97 | 1009.3 |
| 20260902071700 | 13 | 105 | 0.0 | 0.0 | 0.00 | 0.00 | 0.00 | 97 | 1009.3 |
| 20260902071201 | 13 | 105 | 0.0 | 0.0 | 0.00 | 0.00 | 0.00 | 97 | 1009.3 |
| 20260902070659 | 13 | 157 | 0.0 | 1.6 | 0.00 | 0.00 | 0.00 | 97 | 1009.7 |
| 20260902070201 | 13 | 157 | 0.0 | 1.6 | 0.00 | 0.00 | 0.00 | 97 | 1009.7 |
| 20260902065659 | 13 | 165 | 0.0 | 0.0 | 0.00 | 0.00 | 0.00 | 97 | 1009.7 |
| 20260902064159 | 13 | 99 | 0.0 | 0.0 | 0.00 | 0.00 | 0.00 | 96 | 1009.7 |
| 20260902063658 | 13 | 99 | 0.0 | 0.0 | 0.00 | 0.00 | 0.00 | 96 | 1009.3 |
| 20260902063159 | 13 | 99 | 0.0 | 0.0 | 0.00 | 0.00 | 0.00 | 96 | 1009.7 |
| 20260902062656 | 13 | 99 | 0.0 | 0.0 | 0.00 | 0.00 | 0.00 | 96 | 1009.7 |
| 20260902062159 | 13 | 99 | 0.0 | 0.0 | 0.00 | 0.00 | 0.00 | 96 | 1009.7 |
| 20260902060655 | 13 | 90 | 0.0 | 0.0 | 0.00 | 0.00 | 0.00 | 95 | 1009.3 |
| 20260902060155 | 13 | 90 | 0.0 | 0.0 | 0.00 | 0.00 | 0.00 | 95 | 1009.0 |
| 20260902055655 | 13 | 90 | 0.0 | 0.0 | 0.00 | 0.00 | 0.00 | 94 | 1009.3 |
| 20260902055156 | 13 | 90 | 0.0 | 0.0 | 0.00 | 0.00 | 0.00 | 94 | 1009.3 |
| 20260902054654 | 13 | 90 | 0.0 | 0.0 | 0.00 | 0.00 | 0.00 | 94 | 1009.7 |
| 20260902054156 | 13 | 90 | 0.0 | 0.0 | 0.00 | 0.00 | 0.00 | 94 | 1009.3 |
| 20260902053654 | 14 | 90 | 0.0 | 0.0 | 0.00 | 0.00 | 0.00 | 93 | 1009.3 |
| 20260902053154 | 14 | 90 | 0.0 | 0.0 | 0.00 | 0.00 | 0.00 | 93 | 1009.3 |
| 20260902052653 | 14 | 0 | 0.0 | 0.0 | 0.00 | 0.00 | 0.00 | 93 | 1009.3 |
| 20260902052153 | 14 | 0 | 0.0 | 0.0 | 0.00 | 0.00 | 0.00 | 93 | 1009.3 |
| 20260902051653 | 14 | 0 | 0.0 | 0.0 | 0.00 | 0.00 | 0.00 | 92 | 1009.7 |
| 20260902051153 | 14 | 0 | 0.0 | 0.0 | 0.00 | 0.00 | 0.00 | 92 | 1009.3 |
| 20260902050653 | 14 | 0 | 0.0 | 0.0 | 0.00 | 0.00 | 0.00 | 92 | 1009.3 |
| 20260902050152 | 15 | 0 | 0.0 | 0.0 | 0.00 | 0.00 | 0.00 | 92 | 1009.3 |
| 20260902045653 | 14 | 0 | 0.0 | 0.0 | 0.00 | 0.00 | 0.00 | 92 | 1009.3 |
| 20260902045151 | 15 | 0 | 0.0 | 0.0 | 0.00 | 0.00 | 0.00 | 92 | 1009.3 |
| 20260902043651 | 15 | 0 | 0.0 | 0.0 | 0.00 | 0.00 | 0.00 | 93 | 1009.7 |
| 20260902043150 | 14 | 352 | 0.0 | 0.0 | 0.00 | 0.00 | 0.00 | 92 | 1009.7 |
| 20260902042651 | 14 | 352 | 0.0 | 0.0 | 0.00 | 0.00 | 0.00 | 93 | 1009.7 |
| 20260902042150 | 14 | 352 | 0.0 | 0.0 | 0.00 | 0.00 | 0.00 | 92 | 1009.7 |
| 20260902041149 | 14 | 352 | 0.0 | 0.0 | 0.00 | 0.00 | 0.00 | 92 | 1009.7 |
| 20260902040650 | 14 | 352 | 0.0 | 0.0 | 0.00 | 0.00 | 0.00 | 92 | 1009.7 |
| 20260902035147 | 14 | 352 | 0.0 | 0.0 | 0.00 | 0.00 | 0.00 | 92 | 1009.3 |
| 20260902034648 | 14 | 352 | 0.0 | 0.0 | 0.00 | 0.00 | 0.00 | 91 | 1009.3 |
| 20260902034147 | 15 | 352 | 0.0 | 0.0 | 0.00 | 0.00 | 0.00 | 91 | 1009.3 |
| 20260902033146 | 15 | 352 | 0.0 | 0.0 | 0.00 | 0.00 | 0.00 | 91 | 1009.7 |
| 20260902032648 | 15 | 352 | 0.0 | 0.0 | 0.00 | 0.00 | 0.00 | 91 | 1009.7 |
| 20260902032145 | 15 | 352 | 0.0 | 0.0 | 0.00 | 0.00 | 0.00 | 90 | 1009.7 |
| 20260902031647 | 15 | 0 | 0.0 | 0.0 | 0.00 | 0.00 | 0.00 | 90 | 1009.3 |
| 20260902031145 | 15 | 0 | 0.0 | 0.0 | 0.00 | 0.00 | 0.00 | 90 | 1009.7 |
| 20260902030646 | 15 | 0 | 0.0 | 0.0 | 0.00 | 0.00 | 0.00 | 90 | 1009.3 |
| 20260902030144 | 15 | 0 | 0.0 | 0.0 | 0.00 | 0.00 | 0.00 | 90 | 1009.3 |
| 20260902025646 | 15 | 0 | 0.0 | 0.0 | 0.00 | 0.00 | 0.00 | 89 | 1009.7 |
| 20260902025144 | 15 | 0 | 0.0 | 0.0 | 0.00 | 0.00 | 0.00 | 89 | 1009.3 |
| 20260902024645 | 15 | 0 | 0.0 | 0.0 | 0.00 | 0.00 | 0.00 | 88 | 1009.3 |
| 20260902023645 | 15 | 0 | 0.0 | 0.0 | 0.00 | 0.00 | 0.00 | 88 | 1009.7 |
| 20260902023143 | 16 | 0 | 0.0 | 0.0 | 0.00 | 0.00 | 0.00 | 87 | 1009.3 |
| 20260902022644 | 16 | 0 | 0.0 | 0.0 | 0.00 | 0.00 | 0.00 | 87 | 1009.7 |
| 20260902022142 | 16 | 90 | 0.0 | 0.0 | 0.00 | 0.00 | 0.00 | 87 | 1009.7 |
| 20260902021643 | 16 | 90 | 0.0 | 0.0 | 0.00 | 0.00 | 0.00 | 87 | 1009.7 |
| 20260902021142 | 16 | 90 | 0.0 | 0.0 | 0.00 | 0.00 | 0.00 | 87 | 1009.3 |
| 20260902020642 | 16 | 90 | 0.0 | 0.0 | 0.00 | 0.00 | 0.00 | 86 | 1009.7 |
| 20260902020141 | 16 | 90 | 0.0 | 0.0 | 0.00 | 0.00 | 0.00 | 86 | 1009.3 |
| 20260902015640 | 16 | 90 | 0.0 | 0.0 | 0.00 | 0.00 | 0.00 | 85 | 1009.3 |
| 20260902015143 | 17 | 90 | 0.0 | 0.0 | 0.00 | 0.00 | 0.00 | 85 | 1009.3 |
| 20260902014642 | 17 | 90 | 0.0 | 0.0 | 0.00 | 0.00 | 0.00 | 85 | 1009.0 |
| 20260902014140 | 17 | 90 | 0.0 | 0.0 | 0.00 | 0.00 | 0.00 | 84 | 1009.0 |
| 20260902013639 | 17 | 90 | 0.0 | 0.0 | 0.00 | 0.00 | 0.00 | 83 | 1009.0 |
| 20260902012639 | 17 | 90 | 0.0 | 0.0 | 0.00 | 0.00 | 0.00 | 83 | 1009.0 |
| 20260902012140 | 18 | 90 | 0.0 | 0.0 | 0.00 | 0.00 | 0.00 | 83 | 1009.0 |
| 20260902011638 | 18 | 90 | 0.0 | 0.0 | 0.00 | 0.00 | 0.00 | 79 | 1008.5 |
| 20260902011139 | 18 | 90 | 0.0 | 0.0 | 0.00 | 0.00 | 0.00 | 82 | 1009.0 |
| 20260902005640 | 19 | 90 | 0.0 | 0.0 | 0.00 | 0.00 | 0.00 | 76 | 1009.0 |
| 20260902005130 | 20 | 90 | 0.0 | 0.0 | 0.00 | 0.00 | 0.00 | 74 | 1008.5 |
| 20260902004629 | 20 | 90 | 0.0 | 0.0 | 0.00 | 0.00 | 0.00 | 72 | 1008.5 |
| 20260902003129 | 21 | 90 | 0.0 | 0.0 | 0.00 | 0.00 | 0.00 | 71 | 1008.5 |
| 20260902002628 | 21 | 90 | 0.0 | 0.0 | 0.00 | 0.00 | 0.00 | 64 | 1009.0 |
| 20260902002129 | 22 | 279 | 0.0 | 0.0 | 0.00 | 0.00 | 0.00 | 64 | 1008.5 |
| 20260902001629 | 22 | 106 | 0.0 | 1.6 | 0.00 | 0.00 | 0.00 | 61 | 1008.5 |
| 20260902001129 | 22 | 106 | 0.0 | 3.2 | 0.00 | 0.00 | 0.00 | 64 | 1009.0 |
| 20260902000630 | 22 | 98 | 1.6 | 3.2 | 0.00 | 0.00 | 0.00 | 61 | 1009.0 |
| 20260901235628 | 23 | 68 | 0.0 | 3.2 | 0.00 | 0.00 | 0.00 | 61 | 1009.0 |
| 20260901235129 | 23 | 68 | 0.0 | 3.2 | 0.00 | 0.00 | 0.00 | 60 | 1009.0 |
| 20260901234630 | 23 | 328 | 0.0 | 3.2 | 0.00 | 0.00 | 0.00 | 59 | 1008.5 |
| 20260901234129 | 23 | 99 | 0.0 | 3.2 | 0.00 | 0.00 | 0.00 | 58 | 1008.5 |
| 20260901233631 | 24 | 99 | 0.0 | 3.2 | 0.00 | 0.00 | 0.00 | 56 | 1008.5 |
| 20260901233129 | 24 | 147 | 0.0 | 6.4 | 0.00 | 0.00 | 0.00 | 58 | 1009.0 |
| 20260901232631 | 23 | 90 | 0.0 | 6.4 | 0.00 | 0.00 | 0.00 | 56 | 1008.5 |
| 20260901231631 | 23 | 98 | 0.0 | 3.2 | 0.00 | 0.00 | 0.00 | 57 | 1008.5 |
| 20260901231129 | 23 | 139 | 0.0 | 3.2 | 0.00 | 0.00 | 0.00 | 57 | 1008.5 |
| 20260901230630 | 23 | 346 | 0.0 | 4.8 | 0.00 | 0.00 | 0.00 | 57 | 1009.0 |
| 20260901230128 | 23 | 103 | 0.0 | 4.8 | 0.00 | 0.00 | 0.00 | 57 | 1009.0 |
| 20260901225630 | 23 | 90 | 0.0 | 8.0 | 0.00 | 0.00 | 0.00 | 58 | 1008.5 |
| 20260901225129 | 23 | 85 | 0.0 | 8.0 | 0.00 | 0.00 | 0.00 | 56 | 1008.5 |
| 20260901224129 | 23 | 352 | 0.0 | 4.8 | 0.00 | 0.00 | 0.00 | 60 | 1008.5 |
| 20260901223629 | 23 | 90 | 0.0 | 4.8 | 0.00 | 0.00 | 0.00 | 56 | 1008.5 |
| 20260901223128 | 23 | 0 | 0.0 | 3.2 | 0.00 | 0.00 | 0.00 | 56 | 1008.5 |
| 20260901222629 | 24 | 339 | 3.2 | 8.0 | 0.00 | 0.00 | 0.00 | 59 | 1009.0 |
| 20260901222128 | 24 | 342 | 0.0 | 8.0 | 0.00 | 0.00 | 0.00 | 55 | 1008.5 |
| 20260901221627 | 24 | 90 | 1.6 | 6.4 | 0.00 | 0.00 | 0.00 | 61 | 1008.5 |
| 20260901220626 | 25 | 98 | 0.0 | 3.2 | 0.00 | 0.00 | 0.00 | 56 | 1009.0 |
| 20260901220127 | 25 | 8 | 0.0 | 8.0 | 0.00 | 0.00 | 0.00 | 58 | 1008.5 |
| 20260901215628 | 24 | 90 | 0.0 | 8.0 | 0.00 | 0.00 | 0.00 | 55 | 1008.5 |
| 20260901215126 | 25 | 285 | 0.0 | 8.0 | 0.00 | 0.00 | 0.00 | 55 | 1008.5 |
| 20260901214626 | 25 | 85 | 0.0 | 9.7 | 0.00 | 0.00 | 0.00 | 52 | 1008.5 |
| 20260901214127 | 25 | 90 | 0.0 | 9.7 | 0.00 | 0.00 | 0.00 | 52 | 1008.5 |
| 20260901213124 | 25 | 234 | 0.0 | 6.4 | 0.00 | 0.00 | 0.00 | 52 | 1008.5 |
| 20260901212625 | 25 | 174 | 1.6 | 4.8 | 0.00 | 0.00 | 0.00 | 52 | 1008.5 |
| 20260901212123 | 25 | 288 | 0.0 | 11.3 | 0.00 | 0.00 | 0.00 | 52 | 1008.5 |
| 20260901211624 | 25 | 135 | 0.0 | 11.3 | 0.00 | 0.00 | 0.00 | 52 | 1008.5 |
| 20260901211123 | 25 | 270 | 0.0 | 3.2 | 0.00 | 0.00 | 0.00 | 53 | 1008.5 |
| 20260901210622 | 25 | 126 | 0.0 | 6.4 | 0.00 | 0.00 | 0.00 | 56 | 1008.5 |
| 20260901210123 | 25 | 33 | 3.2 | 6.4 | 0.00 | 0.00 | 0.00 | 52 | 1008.5 |
| 20260901205622 | 25 | 11 | 0.0 | 6.4 | 0.00 | 0.00 | 0.00 | 52 | 1008.5 |
| 20260901205122 | 25 | 60 | 0.0 | 9.7 | 0.00 | 0.00 | 0.00 | 52 | 1008.5 |
| 20260901204621 | 26 | 173 | 0.0 | 9.7 | 0.00 | 0.00 | 0.00 | 54 | 1008.5 |
| 20260901204122 | 26 | 120 | 0.0 | 8.0 | 0.00 | 0.00 | 0.00 | 54 | 1008.5 |
| 20260901203623 | 26 | 82 | 3.2 | 8.0 | 0.00 | 0.00 | 0.00 | 54 | 1008.5 |
| 20260901202620 | 26 | 144 | 3.2 | 8.0 | 0.00 | 0.00 | 0.00 | 51 | 1008.5 |
| 20260901202120 | 26 | 14 | 0.0 | 8.0 | 0.00 | 0.00 | 0.00 | 54 | 1008.5 |
| 20260901201621 | 26 | 187 | 0.0 | 6.4 | 0.00 | 0.00 | 0.00 | 57 | 1008.5 |
| 20260901200619 | 25 | 0 | 0.0 | 9.7 | 0.00 | 0.00 | 0.00 | 56 | 1009.0 |
| 20260901200120 | 25 | 8 | 0.0 | 8.0 | 0.00 | 0.00 | 0.00 | 56 | 1009.0 |
| 20260901195119 | 25 | 66 | 1.6 | 11.3 | 0.00 | 0.00 | 0.00 | 55 | 1008.5 |
| 20260901193618 | 25 | 326 | 4.8 | 12.9 | 0.00 | 0.00 | 0.00 | 58 | 1009.0 |
| 20260901192617 | 25 | 180 | 1.6 | 9.7 | 0.00 | 0.00 | 0.00 | 60 | 1009.0 |
| 20260901192117 | 24 | 195 | 0.0 | 9.7 | 0.00 | 0.00 | 0.00 | 55 | 1009.0 |
| 20260901191618 | 25 | 349 | 4.8 | 8.0 | 0.00 | 0.00 | 0.00 | 55 | 1009.0 |
| 20260901191116 | 25 | 0 | 0.0 | 4.8 | 0.00 | 0.00 | 0.00 | 57 | 1009.0 |
| 20260901190116 | 25 | 295 | 0.0 | 17.7 | 0.00 | 0.00 | 0.00 | 56 | 1009.0 |
| 20260901185114 | 26 | 145 | 0.0 | 9.7 | 0.00 | 0.00 | 0.00 | 52 | 1009.0 |
| 20260901184615 | 25 | 351 | 3.2 | 9.7 | 0.00 | 0.00 | 0.00 | 54 | 1009.0 |
| 20260901184116 | 25 | 146 | 3.2 | 9.7 | 0.00 | 0.00 | 0.00 | 55 | 1009.0 |
| 20260901183614 | 25 | 66 | 0.0 | 9.7 | 0.00 | 0.00 | 0.00 | 54 | 1009.0 |
| 20260901183114 | 25 | 114 | 3.2 | 9.7 | 0.00 | 0.00 | 0.00 | 57 | 1009.3 |
| 20260901182614 | 25 | 85 | 3.2 | 9.7 | 0.00 | 0.00 | 0.00 | 56 | 1009.3 |
| 20260901182113 | 25 | 4 | 0.0 | 12.9 | 0.00 | 0.00 | 0.00 | 56 | 1009.3 |
| 20260901181614 | 25 | 30 | 3.2 | 12.9 | 0.00 | 0.00 | 0.00 | 56 | 1009.3 |
| 20260901181113 | 25 | 117 | 1.6 | 8.0 | 0.00 | 0.00 | 0.00 | 56 | 1009.3 |
| 20260901180113 | 25 | 8 | 3.2 | 6.4 | 0.00 | 0.00 | 0.00 | 57 | 1009.0 |
| 20260901175611 | 25 | 150 | 3.2 | 6.4 | 0.00 | 0.00 | 0.00 | 56 | 1009.0 |
| 20260901175112 | 25 | 180 | 3.2 | 8.0 | 0.00 | 0.00 | 0.00 | 58 | 1009.3 |
| 20260901174611 | 24 | 131 | 3.2 | 8.0 | 0.00 | 0.00 | 0.00 | 57 | 1009.0 |
| 20260901174112 | 25 | 99 | 0.0 | 8.0 | 0.00 | 0.00 | 0.00 | 58 | 1009.0 |
| 20260901173614 | 25 | 183 | 3.2 | 9.7 | 0.00 | 0.00 | 0.00 | 54 | 1009.3 |
| 20260901173111 | 25 | 4 | 9.7 | 14.5 | 0.00 | 0.00 | 0.00 | 56 | 1009.3 |
| 20260901172610 | 24 | 39 | 4.8 | 14.5 | 0.00 | 0.00 | 0.00 | 59 | 1009.3 |
| 20260901172109 | 24 | 16 | 3.2 | 6.4 | 0.00 | 0.00 | 0.00 | 57 | 1009.0 |
| 20260901171609 | 24 | 172 | 0.0 | 9.7 | 0.00 | 0.00 | 0.00 | 56 | 1009.0 |
| 20260901171109 | 24 | 175 | 0.0 | 9.7 | 0.00 | 0.00 | 0.00 | 61 | 1009.0 |
| 20260901170610 | 24 | 255 | 1.6 | 8.0 | 0.00 | 0.00 | 0.00 | 59 | 1009.0 |
| 20260901170108 | 23 | 173 | 0.0 | 12.9 | 0.00 | 0.00 | 0.00 | 57 | 1009.3 |
| 20260901165608 | 23 | 180 | 1.6 | 12.9 | 0.00 | 0.00 | 0.00 | 57 | 1009.0 |
| 20260901165109 | 23 | 42 | 4.8 | 6.4 | 0.00 | 0.00 | 0.00 | 58 | 1009.3 |
| 20260901164107 | 23 | 180 | 0.0 | 6.4 | 0.00 | 0.00 | 0.00 | 59 | 1009.3 |
| 20260901163608 | 23 | 13 | 0.0 | 11.3 | 0.00 | 0.00 | 0.00 | 62 | 1009.3 |
| 20260901163107 | 22 | 101 | 6.4 | 11.3 | 0.00 | 0.00 | 0.00 | 60 | 1009.3 |
| 20260901162106 | 22 | 98 | 3.2 | 11.3 | 0.00 | 0.00 | 0.00 | 62 | 1009.3 |
| 20260901161606 | 22 | 127 | 3.2 | 8.0 | 0.00 | 0.00 | 0.00 | 62 | 1009.3 |
| 20260901161107 | 22 | 30 | 3.2 | 12.9 | 0.00 | 0.00 | 0.00 | 62 | 1009.3 |
| 20260901160605 | 22 | 18 | 1.6 | 12.9 | 0.00 | 0.00 | 0.00 | 64 | 1009.7 |
| 20260901155606 | 22 | 180 | 0.0 | 14.5 | 0.00 | 0.00 | 0.00 | 65 | 1009.7 |
| 20260901155104 | 22 | 117 | 0.0 | 14.5 | 0.00 | 0.00 | 0.00 | 65 | 1009.7 |
| 20260901154604 | 21 | 180 | 0.0 | 8.0 | 0.00 | 0.00 | 0.00 | 67 | 1009.3 |
| 20260901154104 | 21 | 353 | 1.6 | 8.0 | 0.00 | 0.00 | 0.00 | 65 | 1009.7 |
| 20260901152604 | 21 | 349 | 3.2 | 6.4 | 0.00 | 0.00 | 0.00 | 69 | 1009.7 |
| 20260901152102 | 21 | 97 | 0.0 | 6.4 | 0.00 | 0.00 | 0.00 | 71 | 1009.7 |
| 20260901151603 | 21 | 205 | 0.0 | 8.0 | 0.00 | 0.00 | 0.00 | 71 | 1009.7 |
| 20260901151101 | 20 | 354 | 1.6 | 9.7 | 0.00 | 0.00 | 0.00 | 70 | 1009.7 |
| 20260901150602 | 20 | 180 | 0.0 | 9.7 | 0.00 | 0.00 | 0.00 | 70 | 1009.7 |
| 20260901145602 | 20 | 23 | 3.2 | 9.7 | 0.00 | 0.00 | 0.00 | 70 | 1009.3 |
| 20260901145101 | 20 | 337 | 0.0 | 9.7 | 0.00 | 0.00 | 0.00 | 71 | 1009.3 |
| 20260901144602 | 21 | 139 | 3.2 | 8.0 | 0.00 | 0.00 | 0.00 | 72 | 1009.7 |
| 20260901144100 | 21 | 120 | 0.0 | 8.0 | 0.00 | 0.00 | 0.00 | 71 | 1009.3 |
| 20260901143601 | 20 | 90 | 0.0 | 9.7 | 0.00 | 0.00 | 0.00 | 70 | 1009.3 |
| 20260901143059 | 20 | 139 | 0.0 | 9.7 | 0.00 | 0.00 | 0.00 | 71 | 1009.3 |
| 20260901142058 | 20 | 140 | 3.2 | 6.4 | 0.00 | 0.00 | 0.00 | 72 | 1009.3 |
| 20260901141600 | 20 | 66 | 1.6 | 8.0 | 0.00 | 0.00 | 0.00 | 72 | 1009.3 |
| 20260901141058 | 20 | 352 | 0.0 | 6.4 | 0.00 | 0.00 | 0.00 | 73 | 1009.0 |
| 20260901140559 | 20 | 203 | 3.2 | 6.4 | 0.00 | 0.00 | 0.00 | 73 | 1009.0 |
| 20260901140057 | 20 | 8 | 4.8 | 4.8 | 0.00 | 0.00 | 0.00 | 74 | 1009.0 |
| 20260901135533 | 19 | 5 | 1.6 | 6.4 | 0.00 | 0.00 | 0.00 | 74 | 1009.0 |
| 20260901135031 | 19 | 133 | 0.0 | 6.4 | 0.00 | 0.00 | 0.00 | 74 | 1009.0 |
| 20260901134532 | 18 | 0 | 0.0 | 6.4 | 0.00 | 0.00 | 0.00 | 76 | 1009.0 |
| 20260901134031 | 18 | 75 | 1.6 | 4.8 | 0.00 | 0.00 | 0.00 | 76 | 1009.0 |
| 20260901133531 | 18 | 20 | 0.0 | 4.8 | 0.00 | 0.00 | 0.00 | 77 | 1009.0 |
| 20260901133030 | 18 | 102 | 0.0 | 4.8 | 0.00 | 0.00 | 0.00 | 79 | 1009.0 |
| 20260901132531 | 17 | 105 | 0.0 | 4.8 | 0.00 | 0.00 | 0.00 | 80 | 1009.0 |
| 20260901132029 | 16 | 0 | 0.0 | 3.2 | 0.00 | 0.00 | 0.00 | 84 | 1008.5 |
| 20260901131529 | 16 | 90 | 0.0 | 3.2 | 0.00 | 0.00 | 0.00 | 85 | 1008.5 |
| 20260901131029 | 15 | 90 | 0.0 | 3.2 | 0.00 | 0.00 | 0.00 | 87 | 1009.0 |
| 20260901130528 | 15 | 99 | 0.0 | 4.8 | 0.00 | 0.00 | 0.00 | 89 | 1008.5 |
| 20260901130029 | 15 | 106 | 0.0 | 4.8 | 0.00 | 0.00 | 0.00 | 88 | 1009.0 |
| 20260901125530 | 14 | 90 | 0.0 | 3.2 | 0.00 | 0.00 | 0.00 | 89 | 1009.0 |
| 20260901124530 | 13 | 344 | 3.2 | 3.2 | 0.00 | 0.00 | 0.00 | 92 | 1009.0 |
| 20260901124028 | 13 | 81 | 0.0 | 3.2 | 0.00 | 0.00 | 0.00 | 93 | 1009.0 |
| 20260901123530 | 13 | 114 | 3.2 | 3.2 | 0.00 | 0.00 | 0.00 | 95 | 1009.3 |
| 20260901123030 | 12 | 82 | 1.6 | 3.2 | 0.00 | 0.00 | 0.00 | 95 | 1009.0 |
| 20260901122530 | 12 | 90 | 0.0 | 3.2 | 0.00 | 0.00 | 0.00 | 95 | 1009.0 |
| 20260901122030 | 12 | 106 | 0.0 | 1.6 | 0.00 | 0.00 | 0.00 | 95 | 1009.0 |
| 20260901121530 | 12 | 90 | 0.0 | 3.2 | 0.00 | 0.00 | 0.00 | 96 | 1009.0 |
| 20260901121029 | 12 | 90 | 0.0 | 3.2 | 0.00 | 0.00 | 0.00 | 96 | 1009.3 |